BGA332 EDHI-LFBO

Flight info

Callsign BGA332
Flight time 1h 47m
Altitude 29000
Route IDEKO N850 XAROL/N0392F280 DCT BOMBI DCT GIGET DCT ABUKA DCT KRH DCT NATOR/N0440F350 DCT LUTIX DCT BENOT DCT NEMOS DCT NINTU DCT MEBAK DCT REPSI DCT LERGA DCT MINSO DCT NARAK
Aircraft A337/H-SDE3GHIJ2J3J5M1RVWXY/LB2D1

Departure

Time 2026-04-25 22:26
Airport Hamburg-Finkenwerder Airport (EDHI)

Arrival

Time 2026-04-26 00:13
Airport Toulouse-Blagnac Airport (LFBO)
Time Latitude Longitude Altitude Speed Heading
2026-04-25 21:43 53.53990 9.83958 28 ft 0 kts 142°
2026-04-25 21:44 53.53990 9.83957 28 ft 0 kts 142°
2026-04-25 21:48 53.53991 9.83957 28 ft 0 kts 142°
2026-04-25 21:58 53.53991 9.83956 28 ft 0 kts 142°
2026-04-25 22:13 53.54002 9.83942 27 ft 4 kts 144°
2026-04-25 22:14 53.54011 9.83923 25 ft 4 kts 224°
2026-04-25 22:14 53.54010 9.83920 25 ft 1 kts 232°
2026-04-25 22:16 53.54007 9.83915 26 ft 1 kts 232°
2026-04-25 22:17 53.53997 9.83894 28 ft 3 kts 232°
2026-04-25 22:17 53.53979 9.83855 27 ft 5 kts 232°
2026-04-25 22:17 53.53956 9.83805 27 ft 0 kts 231°
2026-04-25 22:17 53.53955 9.83803 27 ft 1 kts 231°
2026-04-25 22:18 53.53947 9.83786 27 ft 3 kts 231°
2026-04-25 22:18 53.53931 9.83752 27 ft 5 kts 231°
2026-04-25 22:18 53.53907 9.83703 27 ft 6 kts 231°
2026-04-25 22:18 53.53892 9.83670 27 ft 1 kts 231°
2026-04-25 22:19 53.53888 9.83663 27 ft 1 kts 231°
2026-04-25 22:19 53.53882 9.83650 27 ft 1 kts 228°
2026-04-25 22:19 53.53874 9.83637 27 ft 0 kts 225°
2026-04-25 22:19 53.53873 9.83636 27 ft 0 kts 221°
2026-04-25 22:20 53.53872 9.83636 27 ft 0 kts 216°
2026-04-25 22:20 53.53871 9.83636 27 ft 0 kts 209°
2026-04-25 22:20 53.53852 9.83626 27 ft 5 kts 196°
2026-04-25 22:20 53.53818 9.83627 27 ft 6 kts 163°
2026-04-25 22:21 53.53775 9.83658 27 ft 8 kts 155°
2026-04-25 22:21 53.53763 9.83667 27 ft 0 kts 156°
2026-04-25 22:22 53.53761 9.83668 27 ft 2 kts 156°
2026-04-25 22:22 53.53735 9.83687 26 ft 6 kts 157°
2026-04-25 22:22 53.53677 9.83731 30 ft 12 kts 147°
2026-04-25 22:23 53.53679 9.83861 30 ft 13 kts 58°
2026-04-25 22:23 53.53741 9.83999 32 ft 16 kts 50°
2026-04-25 22:23 53.53815 9.84157 27 ft 19 kts 52°
2026-04-25 22:23 53.53902 9.84339 28 ft 22 kts 51°
2026-04-25 22:24 53.54009 9.84565 27 ft 26 kts 51°
2026-04-25 22:24 53.54131 9.84824 28 ft 30 kts 52°
2026-04-25 22:24 53.54229 9.85054 30 ft 11 kts 46°
2026-04-25 22:24 53.54265 9.85057 30 ft 5 kts 324°
2026-04-25 22:25 53.54263 9.85009 29 ft 5 kts 243°
2026-04-25 22:25 53.54221 9.84975 28 ft 9 kts 206°
2026-04-25 22:25 53.54158 9.84883 28 ft 23 kts 228°
2026-04-25 22:25 53.53939 9.84410 27 ft 81 kts 232°
2026-04-25 22:26 53.53471 9.83421 31 ft 134 kts 232°
2026-04-25 22:26 53.52788 9.82035 227 ft 165 kts 230°
2026-04-25 22:26 53.52063 9.80508 801 ft 168 kts 238°
2026-04-25 22:26 53.51361 9.78940 1449 ft 167 kts 239°
2026-04-25 22:27 53.50631 9.77364 1885 ft 174 kts 241°
2026-04-25 22:27 53.49876 9.75726 2349 ft 180 kts 240°
2026-04-25 22:27 53.49110 9.74039 2853 ft 184 kts 242°
2026-04-25 22:27 53.48323 9.72225 3195 ft 202 kts 242°
2026-04-25 22:28 53.47461 9.70188 3480 ft 227 kts 241°
2026-04-25 22:28 53.46507 9.67935 3798 ft 250 kts 240°
2026-04-25 22:28 53.45463 9.65490 4281 ft 264 kts 240°
2026-04-25 22:28 53.44383 9.62970 4964 ft 267 kts 240°
2026-04-25 22:29 53.43293 9.60432 5725 ft 268 kts 241°
2026-04-25 22:29 53.42205 9.57895 6525 ft 268 kts 242°
2026-04-25 22:29 53.41082 9.55371 7245 ft 274 kts 237°
2026-04-25 22:30 53.37561 9.52351 8645 ft 307 kts 195°
2026-04-25 22:30 53.35419 9.51905 9294 ft 314 kts 192°
2026-04-25 22:30 53.33223 9.51530 9985 ft 318 kts 192°
2026-04-25 22:30 53.31757 9.51276 10358 ft 323 kts 192°
2026-04-25 22:31 53.28669 9.50704 10725 ft 345 kts 192°
2026-04-25 22:31 53.26236 9.50240 11073 ft 357 kts 192°
2026-04-25 22:31 53.23741 9.49765 11576 ft 363 kts 192°
2026-04-25 22:31 53.22073 9.49449 11945 ft 366 kts 192°
2026-04-25 22:32 53.19529 9.48975 12504 ft 370 kts 191°
2026-04-25 22:32 53.16953 9.48497 13048 ft 374 kts 191°
2026-04-25 22:32 53.14352 9.48006 13611 ft 378 kts 192°
2026-04-25 22:32 53.11727 9.47504 14139 ft 381 kts 192°
2026-04-25 22:33 53.09079 9.46995 14642 ft 384 kts 192°
2026-04-25 22:33 53.06412 9.46481 15155 ft 387 kts 192°
2026-04-25 22:33 53.03729 9.45963 15672 ft 389 kts 192°
2026-04-25 22:33 53.01030 9.45442 16177 ft 391 kts 192°
2026-04-25 22:34 52.98313 9.44911 16680 ft 394 kts 192°
2026-04-25 22:34 52.95617 9.44364 17166 ft 396 kts 192°
2026-04-25 22:34 52.92896 9.43797 17652 ft 398 kts 193°
2026-04-25 22:34 52.90138 9.43212 18131 ft 401 kts 193°
2026-04-25 22:35 52.87342 9.42613 18579 ft 403 kts 192°
2026-04-25 22:35 52.84566 9.42019 19060 ft 402 kts 192°
2026-04-25 22:35 52.81779 9.41424 19468 ft 405 kts 192°
2026-04-25 22:35 52.78969 9.40824 19848 ft 407 kts 192°
2026-04-25 22:36 52.76150 9.40223 20225 ft 410 kts 192°
2026-04-25 22:36 52.73312 9.39619 20609 ft 412 kts 192°
2026-04-25 22:36 52.70491 9.39021 20970 ft 414 kts 192°
2026-04-25 22:36 52.67595 9.38408 21339 ft 417 kts 192°
2026-04-25 22:37 52.64703 9.37797 21705 ft 419 kts 192°
2026-04-25 22:37 52.61818 9.37166 22075 ft 419 kts 193°
2026-04-25 22:37 52.58963 9.36467 22465 ft 420 kts 193°
2026-04-25 22:37 52.56067 9.35710 22802 ft 422 kts 194°
2026-04-25 22:38 52.53171 9.34933 23143 ft 424 kts 194°
2026-04-25 22:38 52.50239 9.34145 23472 ft 427 kts 194°
2026-04-25 22:38 52.47300 9.33359 23794 ft 429 kts 194°
2026-04-25 22:38 52.44350 9.32578 24068 ft 430 kts 194°
2026-04-25 22:39 52.41389 9.31800 24333 ft 432 kts 194°
2026-04-25 22:39 52.38419 9.31025 24690 ft 430 kts 193°
2026-04-25 22:39 52.35489 9.30267 25199 ft 424 kts 193°
2026-04-25 22:39 52.32573 9.29511 25570 ft 423 kts 193°
2026-04-25 22:40 52.29664 9.28752 25884 ft 423 kts 193°
2026-04-25 22:40 52.26785 9.27998 26188 ft 423 kts 193°
2026-04-25 22:40 52.23853 9.27234 26519 ft 422 kts 193°
2026-04-25 22:40 52.20938 9.26576 26859 ft 422 kts 191°
2026-04-25 22:41 52.18056 9.26020 27187 ft 422 kts 191°
2026-04-25 22:41 52.15134 9.25504 27492 ft 421 kts 190°
2026-04-25 22:41 52.12237 9.25008 27939 ft 417 kts 190°
2026-04-25 22:41 52.09306 9.24506 28286 ft 416 kts 190°
2026-04-25 22:42 52.06471 9.24011 28565 ft 416 kts 190°
2026-04-25 22:42 52.03606 9.23425 28848 ft 415 kts 192°
2026-04-25 22:42 52.00747 9.22726 29152 ft 414 kts 193°
2026-04-25 22:42 51.97910 9.21974 29454 ft 413 kts 194°
2026-04-25 22:43 51.95077 9.21202 29749 ft 413 kts 194°
2026-04-25 22:43 51.92244 9.20430 30023 ft 412 kts 193°
2026-04-25 22:43 51.89418 9.19670 30371 ft 410 kts 193°
2026-04-25 22:43 51.86606 9.18968 30648 ft 409 kts 192°
2026-04-25 22:44 51.84739 9.18538 30803 ft 409 kts 191°
2026-04-25 22:45 51.69392 9.15254 32005 ft 407 kts 191°
2026-04-25 22:45 51.67677 9.14885 32110 ft 407 kts 191°
2026-04-25 22:45 51.63963 9.14084 32404 ft 406 kts 191°
2026-04-25 22:46 51.61143 9.13475 32635 ft 405 kts 191°
2026-04-25 22:46 51.58350 9.12873 32824 ft 405 kts 191°
2026-04-25 22:46 51.55557 9.12271 33024 ft 405 kts 191°
2026-04-25 22:46 51.52766 9.11670 33205 ft 404 kts 190°
2026-04-25 22:47 51.49988 9.11027 33395 ft 403 kts 192°
2026-04-25 22:47 51.47232 9.10210 33577 ft 402 kts 194°
2026-04-25 22:47 51.44500 9.09288 33754 ft 400 kts 195°
2026-04-25 22:47 51.41784 9.08325 33963 ft 399 kts 195°
2026-04-25 22:48 51.39082 9.07359 34141 ft 398 kts 195°
2026-04-25 22:48 51.36372 9.06399 34275 ft 399 kts 195°
2026-04-25 22:48 51.30925 9.04561 34469 ft 401 kts 192°
2026-04-25 22:49 51.28209 9.03879 34640 ft 400 kts 190°
2026-04-25 22:49 51.25456 9.03313 34825 ft 398 kts 189°
2026-04-25 22:49 51.22711 9.02805 35017 ft 396 kts 189°
2026-04-25 22:49 51.19983 9.02311 35141 ft 395 kts 189°
2026-04-25 22:50 51.14487 9.01281 35163 ft 401 kts 189°
2026-04-25 22:50 51.08950 9.00198 35166 ft 407 kts 190°
2026-04-25 22:51 51.03292 8.99075 35164 ft 413 kts 190°
2026-04-25 22:51 50.97564 8.97940 35157 ft 414 kts 189°
2026-04-25 22:52 50.91847 8.96813 35164 ft 413 kts 189°
2026-04-25 22:52 50.87104 8.95880 35165 ft 413 kts 189°
2026-04-25 22:53 50.80523 8.94586 35169 ft 413 kts 189°
2026-04-25 22:53 50.74788 8.93462 35165 ft 413 kts 189°
2026-04-25 22:54 50.69077 8.92346 35168 ft 413 kts 189°
2026-04-25 22:54 50.63363 8.91232 35171 ft 413 kts 189°
2026-04-25 22:55 50.57690 8.90128 35165 ft 413 kts 189°
2026-04-25 22:55 50.51986 8.89021 35159 ft 413 kts 190°
2026-04-25 22:56 50.46302 8.87921 35164 ft 411 kts 190°
2026-04-25 22:56 50.40630 8.86825 35163 ft 411 kts 190°
2026-04-25 22:57 50.34947 8.85729 35164 ft 411 kts 189°
2026-04-25 22:57 50.29272 8.84637 35159 ft 410 kts 189°
2026-04-25 22:58 50.23614 8.83553 35169 ft 409 kts 189°
2026-04-25 22:58 50.17964 8.82471 35175 ft 409 kts 189°
2026-04-25 22:59 50.12315 8.81393 35174 ft 409 kts 189°
2026-04-25 22:59 50.06707 8.80326 35175 ft 409 kts 190°
2026-04-25 23:00 50.01059 8.79191 35183 ft 409 kts 191°
2026-04-25 23:00 49.95412 8.78008 35177 ft 409 kts 191°
2026-04-25 23:01 49.89766 8.76826 35165 ft 409 kts 191°
2026-04-25 23:01 49.84122 8.75655 35162 ft 409 kts 191°
2026-04-25 23:02 49.78480 8.74489 35168 ft 409 kts 191°
2026-04-25 23:02 49.72835 8.73327 35172 ft 409 kts 191°
2026-04-25 23:03 49.67189 8.72173 35174 ft 409 kts 191°
2026-04-25 23:03 49.61550 8.71034 35184 ft 409 kts 191°
2026-04-25 23:04 49.56858 8.70089 35185 ft 408 kts 191°
2026-04-25 23:04 49.50267 8.68763 35189 ft 408 kts 191°
2026-04-25 23:05 49.44635 8.67633 35189 ft 408 kts 191°
2026-04-25 23:05 49.39008 8.66496 35181 ft 407 kts 191°
2026-04-25 23:06 49.33402 8.65362 35182 ft 406 kts 191°
2026-04-25 23:06 49.27795 8.64230 35176 ft 406 kts 191°
2026-04-25 23:07 49.22230 8.63110 35178 ft 406 kts 191°
2026-04-25 23:07 49.16632 8.61986 35173 ft 405 kts 191°
2026-04-25 23:08 49.11038 8.60862 35171 ft 405 kts 191°
2026-04-25 23:08 49.05454 8.59735 35173 ft 405 kts 191°
2026-04-25 23:09 48.99864 8.58610 35175 ft 404 kts 192°
2026-04-25 23:09 48.94378 8.57071 35177 ft 402 kts 195°
2026-04-25 23:10 48.88929 8.55239 35175 ft 401 kts 196°
2026-04-25 23:10 48.83481 8.53405 35176 ft 401 kts 195°
2026-04-25 23:11 48.78906 8.51905 35174 ft 401 kts 195°
2026-04-25 23:11 48.73456 8.50148 35174 ft 400 kts 195°
2026-04-25 23:12 48.68041 8.48413 35173 ft 400 kts 195°
2026-04-25 23:12 48.62567 8.46661 35171 ft 399 kts 195°
2026-04-25 23:13 48.57163 8.44933 35174 ft 399 kts 195°
2026-04-25 23:13 48.51693 8.43187 35167 ft 399 kts 195°
2026-04-25 23:14 48.46254 8.41455 35175 ft 399 kts 195°
2026-04-25 23:14 48.40858 8.39741 35174 ft 399 kts 195°
2026-04-25 23:15 48.35412 8.38015 35175 ft 399 kts 195°
2026-04-25 23:15 48.29977 8.36298 35170 ft 398 kts 195°
2026-04-25 23:16 48.24546 8.34583 35174 ft 398 kts 195°
2026-04-25 23:16 48.19136 8.32829 35171 ft 397 kts 199°
2026-04-25 23:17 48.16562 8.31405 35172 ft 392 kts 210°
2026-04-25 23:17 48.14179 8.29456 35177 ft 390 kts 213°
2026-04-25 23:17 48.09581 8.25188 35180 ft 388 kts 216°
2026-04-25 23:18 48.05096 8.20802 35179 ft 388 kts 216°
2026-04-25 23:18 48.00574 8.16393 35171 ft 388 kts 216°
2026-04-25 23:19 47.96035 8.12017 35173 ft 388 kts 216°
2026-04-25 23:19 47.91496 8.07670 35176 ft 388 kts 216°
2026-04-25 23:20 47.86958 8.03336 35177 ft 387 kts 216°
2026-04-25 23:20 47.82418 7.99007 35178 ft 387 kts 216°
2026-04-25 23:21 47.77907 7.94716 35176 ft 387 kts 216°
2026-04-25 23:21 47.73367 7.90404 35157 ft 387 kts 215°
2026-04-25 23:22 47.68825 7.86098 35162 ft 387 kts 215°
2026-04-25 23:23 47.62002 7.79648 35161 ft 387 kts 215°
2026-04-25 23:23 47.57460 7.75365 35158 ft 387 kts 215°
2026-04-25 23:24 47.52916 7.71091 35161 ft 387 kts 215°
2026-04-25 23:24 47.48369 7.66821 35162 ft 387 kts 215°
2026-04-25 23:25 47.43822 7.62568 35165 ft 388 kts 215°
2026-04-25 23:25 47.39231 7.58286 35149 ft 390 kts 214°
2026-04-25 23:26 47.34695 7.54062 35150 ft 387 kts 214°
2026-04-25 23:26 47.30142 7.49822 35158 ft 387 kts 214°
2026-04-25 23:27 47.25585 7.45587 35153 ft 387 kts 214°
2026-04-25 23:27 47.21044 7.41377 35156 ft 386 kts 214°
2026-04-25 23:28 47.16668 7.36873 35156 ft 382 kts 225°
2026-04-25 23:28 47.13135 7.31099 35156 ft 379 kts 232°
2026-04-25 23:29 47.09836 7.25056 35161 ft 379 kts 233°
2026-04-25 23:29 47.06582 7.18983 35159 ft 379 kts 233°
2026-04-25 23:30 47.03307 7.12922 35185 ft 379 kts 233°
2026-04-25 23:30 47.00021 7.06895 35157 ft 379 kts 233°
2026-04-25 23:31 46.94788 6.97343 35158 ft 384 kts 233°
2026-04-25 23:31 46.81507 6.73283 35157 ft 376 kts 232°
2026-04-25 23:32 46.68280 6.49539 35147 ft 378 kts 232°
2026-04-25 23:32 46.54976 6.25863 35145 ft 377 kts 232°
2026-04-25 23:33 46.41649 6.02351 35154 ft 376 kts 232°
2026-04-25 23:33 46.28325 5.79038 35152 ft 376 kts 232°
2026-04-25 23:34 46.07985 5.41817 35126 ft 387 kts 239°
2026-04-25 23:34 46.01902 5.28726 35137 ft 400 kts 236°
2026-04-25 23:34 45.95477 5.15493 35136 ft 413 kts 236°
2026-04-25 23:34 45.82197 4.88235 35126 ft 427 kts 236°
2026-04-25 23:35 45.70279 4.63942 35170 ft 348 kts 236°
2026-04-25 23:35 45.58601 4.40424 35180 ft 377 kts 236°
2026-04-25 23:35 45.46546 4.16295 35184 ft 367 kts 235°
2026-04-25 23:36 45.29759 3.83083 35178 ft 376 kts 236°
2026-04-25 23:36 45.26702 3.77085 35170 ft 374 kts 236°
2026-04-25 23:37 45.23697 3.71098 35173 ft 368 kts 236°
2026-04-25 23:37 45.20786 3.65173 34881 ft 367 kts 237°
2026-04-25 23:37 45.19336 3.62216 34631 ft 365 kts 237°
2026-04-25 23:38 45.17883 3.59260 34393 ft 362 kts 237°
2026-04-25 23:38 45.16444 3.56338 34145 ft 360 kts 237°
2026-04-25 23:38 45.15016 3.53446 33871 ft 358 kts 236°
2026-04-25 23:38 45.13587 3.50559 33581 ft 357 kts 237°
2026-04-25 23:39 45.12160 3.47677 33309 ft 357 kts 237°
2026-04-25 23:39 45.10726 3.44787 33049 ft 359 kts 237°
2026-04-25 23:39 45.09295 3.41903 32776 ft 359 kts 236°
2026-04-25 23:39 45.07859 3.39014 32510 ft 361 kts 236°
2026-04-25 23:40 45.06406 3.36095 32275 ft 362 kts 236°
2026-04-25 23:40 45.04957 3.33184 32020 ft 363 kts 236°
2026-04-25 23:40 45.03499 3.30260 31758 ft 364 kts 236°
2026-04-25 23:40 45.02039 3.27335 31508 ft 365 kts 236°
2026-04-25 23:41 45.00578 3.24413 31253 ft 366 kts 236°
2026-04-25 23:41 44.99115 3.21489 31001 ft 367 kts 236°
2026-04-25 23:41 44.97635 3.18533 30756 ft 368 kts 236°
2026-04-25 23:41 44.96153 3.15575 30542 ft 370 kts 236°
2026-04-25 23:42 44.94663 3.12608 30289 ft 371 kts 236°
2026-04-25 23:42 44.93169 3.09633 30005 ft 372 kts 236°
2026-04-25 23:42 44.91669 3.06649 29734 ft 373 kts 236°
2026-04-25 23:42 44.90169 3.03658 29459 ft 373 kts 236°
2026-04-25 23:43 44.88672 3.00677 29184 ft 372 kts 236°
2026-04-25 23:43 44.87176 2.97705 28910 ft 372 kts 235°
2026-04-25 23:43 44.85675 2.94727 28647 ft 373 kts 235°
2026-04-25 23:43 44.84214 2.91709 28371 ft 374 kts 237°
2026-04-25 23:44 44.82794 2.88622 28098 ft 374 kts 238°
2026-04-25 23:44 44.81383 2.85536 27848 ft 375 kts 238°
2026-04-25 23:44 44.79967 2.82448 27597 ft 376 kts 238°
2026-04-25 23:44 44.78546 2.79356 27336 ft 377 kts 238°
2026-04-25 23:45 44.77114 2.76249 27072 ft 378 kts 237°
2026-04-25 23:45 44.75681 2.73146 26826 ft 379 kts 237°
2026-04-25 23:45 44.74244 2.70037 26563 ft 380 kts 237°
2026-04-25 23:45 44.72800 2.66919 26318 ft 380 kts 237°
2026-04-25 23:46 44.71358 2.63807 26080 ft 379 kts 237°
2026-04-25 23:46 44.69937 2.60745 25834 ft 379 kts 237°
2026-04-25 23:46 44.68494 2.57640 25598 ft 380 kts 237°
2026-04-25 23:46 44.67046 2.54526 25356 ft 381 kts 237°
2026-04-25 23:47 44.65591 2.51399 25128 ft 382 kts 237°
2026-04-25 23:47 44.64134 2.48274 24889 ft 383 kts 237°
2026-04-25 23:47 44.62675 2.45148 24659 ft 384 kts 237°
2026-04-25 23:47 44.61207 2.42006 24428 ft 385 kts 237°
2026-04-25 23:48 44.59738 2.38863 24204 ft 386 kts 236°
2026-04-25 23:48 44.58264 2.35723 23964 ft 386 kts 236°
2026-04-25 23:48 44.56788 2.32580 23725 ft 386 kts 236°
2026-04-25 23:48 44.55310 2.29434 23456 ft 385 kts 236°
2026-04-25 23:49 44.53861 2.26350 23186 ft 383 kts 236°
2026-04-25 23:49 44.52402 2.23249 22907 ft 381 kts 236°
2026-04-25 23:49 44.50942 2.20148 22674 ft 379 kts 236°
2026-04-25 23:49 44.49492 2.17071 22400 ft 378 kts 236°
2026-04-25 23:50 44.48045 2.14002 22123 ft 377 kts 236°
2026-04-25 23:50 44.46598 2.10938 21875 ft 376 kts 236°
2026-04-25 23:50 44.45160 2.07894 21607 ft 375 kts 236°
2026-04-25 23:50 44.43727 2.04872 21359 ft 367 kts 236°
2026-04-25 23:51 44.42341 2.01943 21072 ft 355 kts 236°
2026-04-25 23:51 44.40993 1.99096 20706 ft 348 kts 236°
2026-04-25 23:51 44.39668 1.96300 20336 ft 344 kts 236°
2026-04-25 23:51 44.38355 1.93531 19962 ft 345 kts 236°
2026-04-25 23:52 44.37013 1.90707 19590 ft 345 kts 237°
2026-04-25 23:52 44.35689 1.87924 19209 ft 343 kts 237°
2026-04-25 23:52 44.34368 1.85152 18846 ft 342 kts 237°
2026-04-25 23:52 44.33056 1.82398 18454 ft 340 kts 237°
2026-04-25 23:53 44.31741 1.79643 18017 ft 339 kts 237°
2026-04-25 23:53 44.30431 1.76925 17667 ft 337 kts 235°
2026-04-25 23:53 44.28882 1.74484 17312 ft 336 kts 221°
2026-04-25 23:53 44.27032 1.72511 16933 ft 335 kts 216°
2026-04-25 23:54 44.25109 1.70667 16557 ft 334 kts 215°
2026-04-25 23:54 44.23193 1.68856 16190 ft 332 kts 215°
2026-04-25 23:54 44.21284 1.67047 15825 ft 330 kts 215°
2026-04-25 23:54 44.19395 1.65251 15462 ft 328 kts 215°
2026-04-25 23:55 44.17512 1.63458 15087 ft 326 kts 215°
2026-04-25 23:55 44.15643 1.61677 14731 ft 324 kts 215°
2026-04-25 23:55 44.13783 1.59905 14360 ft 323 kts 215°
2026-04-25 23:55 44.11935 1.58144 14007 ft 321 kts 215°
2026-04-25 23:56 44.10100 1.56395 13623 ft 319 kts 215°
2026-04-25 23:56 44.08276 1.54659 13262 ft 317 kts 215°
2026-04-25 23:56 44.07071 1.53513 13005 ft 316 kts 215°
2026-04-25 23:56 44.05260 1.51791 12649 ft 314 kts 215°
2026-04-25 23:57 44.02876 1.49527 12186 ft 311 kts 215°
2026-04-25 23:57 44.01094 1.47835 11832 ft 310 kts 215°
2026-04-25 23:57 43.99268 1.46258 11486 ft 309 kts 206°
2026-04-25 23:57 43.97223 1.45384 11127 ft 308 kts 186°
2026-04-25 23:58 43.95129 1.45421 10984 ft 294 kts 175°
2026-04-25 23:58 43.93779 1.45614 10925 ft 284 kts 174°
2026-04-25 23:58 43.91854 1.45927 10810 ft 272 kts 174°
2026-04-25 23:58 43.89984 1.46232 10688 ft 272 kts 174°
2026-04-25 23:59 43.88100 1.46533 10419 ft 273 kts 174°
2026-04-25 23:59 43.86242 1.46826 10105 ft 271 kts 174°
2026-04-25 23:59 43.84372 1.47118 9793 ft 270 kts 174°
2026-04-25 23:59 43.82506 1.47407 9512 ft 269 kts 174°
2026-04-26 00:00 43.80027 1.47790 9110 ft 267 kts 174°
2026-04-26 00:00 43.78804 1.47978 8929 ft 266 kts 174°
2026-04-26 00:00 43.76965 1.48262 8644 ft 265 kts 174°
2026-04-26 00:00 43.75135 1.48543 8358 ft 264 kts 173°
2026-04-26 00:01 43.73313 1.48823 8076 ft 263 kts 173°
2026-04-26 00:01 43.71498 1.49101 7777 ft 262 kts 173°
2026-04-26 00:01 43.69690 1.49379 7491 ft 260 kts 173°
2026-04-26 00:01 43.67892 1.49654 7209 ft 259 kts 173°
2026-04-26 00:02 43.66106 1.49928 6925 ft 258 kts 172°
2026-04-26 00:02 43.64315 1.50202 6456 ft 261 kts 172°
2026-04-26 00:02 43.62481 1.50486 5796 ft 269 kts 173°
2026-04-26 00:02 43.60612 1.50774 5263 ft 271 kts 173°
2026-04-26 00:03 43.58742 1.51061 4776 ft 270 kts 174°
2026-04-26 00:03 43.56896 1.51343 4477 ft 262 kts 173°
2026-04-26 00:03 43.55139 1.51713 4294 ft 250 kts 161°
2026-04-26 00:03 43.53721 1.52951 4134 ft 238 kts 132°
2026-04-26 00:04 43.52613 1.54605 3874 ft 233 kts 132°
2026-04-26 00:04 43.51498 1.56206 3578 ft 230 kts 133°
2026-04-26 00:04 43.50397 1.57780 3286 ft 228 kts 133°
2026-04-26 00:04 43.49300 1.59342 3036 ft 227 kts 133°
2026-04-26 00:05 43.48197 1.60910 3000 ft 228 kts 133°
2026-04-26 00:05 43.47097 1.62481 3002 ft 228 kts 133°
2026-04-26 00:05 43.46011 1.64035 3003 ft 228 kts 133°
2026-04-26 00:05 43.44893 1.65589 2980 ft 228 kts 139°
2026-04-26 00:06 43.43484 1.66521 3000 ft 227 kts 171°
2026-04-26 00:06 43.41938 1.66308 2985 ft 224 kts 204°
2026-04-26 00:06 43.40734 1.65030 2984 ft 220 kts 237°
2026-04-26 00:06 43.40225 1.63094 2982 ft 216 kts 269°
2026-04-26 00:07 43.40563 1.61122 2998 ft 213 kts 300°
2026-04-26 00:07 43.41391 1.59431 2999 ft 214 kts 306°
2026-04-26 00:07 43.42299 1.57809 3006 ft 212 kts 311°
2026-04-26 00:07 43.43359 1.56438 3007 ft 207 kts 321°
2026-04-26 00:08 43.44507 1.55242 2985 ft 207 kts 323°
2026-04-26 00:08 43.45632 1.54083 2980 ft 195 kts 323°
2026-04-26 00:08 43.46692 1.52988 3000 ft 187 kts 323°
2026-04-26 00:08 43.47734 1.51911 3006 ft 188 kts 322°
2026-04-26 00:09 43.48757 1.50853 2982 ft 174 kts 323°
2026-04-26 00:09 43.49684 1.49893 3003 ft 163 kts 322°
2026-04-26 00:09 43.50587 1.48957 2985 ft 162 kts 322°
2026-04-26 00:09 43.51491 1.48018 2986 ft 163 kts 322°
2026-04-26 00:10 43.52397 1.47078 2880 ft 163 kts 323°
2026-04-26 00:10 43.53300 1.46146 2661 ft 162 kts 323°
2026-04-26 00:10 43.54197 1.45217 2433 ft 161 kts 323°
2026-04-26 00:10 43.55084 1.44282 2234 ft 160 kts 322°
2026-04-26 00:11 43.55968 1.43343 2005 ft 159 kts 323°
2026-04-26 00:11 43.56849 1.42432 1787 ft 158 kts 323°
2026-04-26 00:11 43.57726 1.41545 1518 ft 158 kts 323°
2026-04-26 00:11 43.58607 1.40642 1318 ft 158 kts 322°
2026-04-26 00:12 43.59484 1.39719 1106 ft 159 kts 321°
2026-04-26 00:12 43.60363 1.38795 909 ft 159 kts 322°
2026-04-26 00:12 43.61244 1.37878 689 ft 158 kts 322°
2026-04-26 00:12 43.62124 1.36975 515 ft 156 kts 323°
2026-04-26 00:13 43.62909 1.36159 487 ft 118 kts 323°
2026-04-26 00:13 43.63406 1.35640 499 ft 61 kts 322°
2026-04-26 00:13 43.63657 1.35379 488 ft 41 kts 322°
2026-04-26 00:13 43.63873 1.35155 499 ft 37 kts 323°
2026-04-26 00:14 43.64011 1.34994 501 ft 15 kts 301°
2026-04-26 00:14 43.64002 1.34881 500 ft 10 kts 238°
2026-04-26 00:14 43.63980 1.34839 499 ft 3 kts 230°
2026-04-26 00:14 43.63958 1.34813 499 ft 5 kts 212°
2026-04-26 00:15 43.63924 1.34812 499 ft 5 kts 168°
2026-04-26 00:15 43.63888 1.34832 499 ft 6 kts 156°
2026-04-26 00:15 43.63845 1.34868 499 ft 8 kts 144°
2026-04-26 00:15 43.63795 1.34920 499 ft 10 kts 143°
2026-04-26 00:16 43.63735 1.34983 499 ft 12 kts 143°
2026-04-26 00:16 43.63666 1.35055 499 ft 13 kts 142°
2026-04-26 00:16 43.63588 1.35138 487 ft 15 kts 142°
2026-04-26 00:16 43.63501 1.35228 487 ft 16 kts 143°
2026-04-26 00:17 43.63407 1.35327 487 ft 18 kts 142°
2026-04-26 00:17 43.63305 1.35433 499 ft 19 kts 143°
2026-04-26 00:17 43.63197 1.35546 499 ft 20 kts 143°
2026-04-26 00:17 43.63081 1.35664 490 ft 21 kts 144°
2026-04-26 00:18 43.62962 1.35792 488 ft 22 kts 140°
2026-04-26 00:18 43.62836 1.35924 496 ft 23 kts 144°
2026-04-26 00:18 43.62704 1.36059 487 ft 24 kts 143°
2026-04-26 00:18 43.62569 1.36198 487 ft 24 kts 142°
2026-04-26 00:19 43.62434 1.36340 489 ft 25 kts 143°
2026-04-26 00:19 43.62295 1.36484 489 ft 25 kts 143°
2026-04-26 00:19 43.62178 1.36605 487 ft 20 kts 142°
2026-04-26 00:19 43.62067 1.36723 488 ft 20 kts 145°
2026-04-26 00:20 43.61970 1.36822 489 ft 17 kts 143°
2026-04-26 00:20 43.61887 1.36909 487 ft 9 kts 143°
2026-04-26 00:20 43.61832 1.36957 489 ft 9 kts 161°
2026-04-26 00:20 43.61775 1.36945 490 ft 8 kts 210°
2026-04-26 00:21 43.61738 1.36892 488 ft 8 kts 230°
2026-04-26 00:21 43.61698 1.36822 487 ft 10 kts 232°
2026-04-26 00:21 43.61651 1.36743 490 ft 11 kts 231°
2026-04-26 00:21 43.61591 1.36668 489 ft 12 kts 223°
2026-04-26 00:22 43.61579 1.36613 487 ft 3 kts 290°
2026-04-26 00:22 43.61587 1.36579 491 ft 5 kts 288°
2026-04-26 00:22 43.61594 1.36496 490 ft 11 kts 270°
2026-04-26 00:22 43.61594 1.36470 488 ft 0 kts 271°